Change the Weather History Date:

Sunday, August 17, 2014

  Actual Average Record
Temperature  
Mean Temperature 78 °F -  
Max Temperature 93 °F 90 °F 96 °F (2002)
Min Temperature 64 °F 64 °F 59 °F (2004)
Cooling Degree Days 14    
Growing Degree Days 28 (Base 50)    
Moisture  
Dew Point 54 °F    
Average Humidity 42    
Maximum Humidity 73    
Minimum Humidity 25    
Precipitation  
Precipitation 0.00 in - - ()
Sea Level Pressure  
Sea Level Pressure 29.93 in    
Wind  
Wind Speed 7 mph (East)    
Max Wind Speed 22 mph    
Max Gust Speed 31 mph    
Visibility 10 miles    
Events Thunderstorm    
Averages and records for this station are not official NWS values.
T = Trace of Precipitation, MM = Missing Value Source: NWS Daily Summary

Daily Weather History Graph

Daily Weather History Graph

Search for Another Location

Airport or City:

Trip Planner

Search our weather history database for the weather conditions in past years. The results will help you decide how hot, cold, wet, or windy it might be!

Date:

Astronomy

Aug. 17, 2014 Rise Set
Actual Time 6:29 AM MDT 7:47 PM MDT
Civil Twilight 6:03 AM MDT 8:13 PM MDT
Nautical Twilight 5:32 AM MDT 8:43 PM MDT
Astronomical Twilight 5:00 AM MDT 9:16 PM MDT
Moon No Moon Rise 1:52 PM MDT (8/17)
Length of Visible Light 14h 09m
Length of Day
13h 18m
Waning Gibbous, 48% of the Moon is Illuminated
Aug 17
Waning Gibbous
Aug 25
New
Sep 2
First Quarter
Sep 8
Full
Sep 15
Last Quarter

Hourly Weather History & Observations

Time (MDT) Temp. Heat Index Dew Point Humidity Pressure Visibility Wind Dir Wind Speed Gust Speed Precip Events Conditions
12:58 AM 69.8 °F - 55.4 °F 60% 29.91 in 10.0 mi South 9.2 mph - N/A   Partly Cloudy
1:58 AM 69.8 °F - 53.6 °F 56% 29.90 in 10.0 mi ESE 6.9 mph - N/A   Clear
2:58 AM 71.6 °F - 55.4 °F 57% 29.89 in 10.0 mi Calm Calm - N/A   Clear
3:58 AM 66.2 °F - 55.4 °F 68% 29.91 in 10.0 mi NE 4.6 mph - N/A   Clear
4:58 AM 66.2 °F - 55.4 °F 68% 29.89 in 10.0 mi West 6.9 mph - N/A   Partly Cloudy
5:58 AM 66.2 °F - 55.4 °F 68% 29.92 in 10.0 mi NE 5.8 mph - N/A   Clear
6:58 AM 64.4 °F - 55.4 °F 73% 29.94 in 10.0 mi East 4.6 mph - N/A   Clear
7:58 AM 71.6 °F - 57.2 °F 60% 29.92 in 10.0 mi East 3.5 mph - N/A   Clear
8:58 AM 77.0 °F - 55.4 °F 47% 29.94 in 10.0 mi Calm Calm - N/A   Clear
9:58 AM 81.3 °F 80.9 °F 54.9 °F 40% 29.94 in 10.0 mi NW 1.2 mph - N/A   Clear
10:58 AM 84.2 °F 83.0 °F 55.4 °F 37% 29.94 in 10.0 mi NW 4.6 mph - N/A   Clear
11:58 AM 87.3 °F 85.3 °F 53.6 °F 32% 29.92 in 10.0 mi Variable 3.5 mph - N/A   Partly Cloudy
12:58 PM 89.6 °F 87.3 °F 53.6 °F 29% 29.90 in 10.0 mi Variable 5.8 mph - N/A   Partly Cloudy
1:59 PM 91.0 °F - 52.3 °F 27% 29.87 in 10.0 mi West 10.4 mph - N/A   Clear
2:58 PM 91.4 °F - 51.8 °F 26% 29.84 in 10.0 mi SSE 4.6 mph - N/A   Clear
3:59 PM 92.8 °F - 52.2 °F 25% 29.82 in 10.0 mi South 9.2 mph - N/A Thunderstorm Clear
4:06 PM 93.2 °F 90.8 °F 53.6 °F 26% 30.04 in 10.0 mi East 19.6 mph 25.3 mph N/A Thunderstorm Thunderstorm
4:07 PM 93.2 °F 90.8 °F 53.6 °F 26% 30.04 in 10.0 mi East 17.3 mph 25.3 mph N/A Thunderstorm Thunderstorm
4:21 PM 89.6 °F 87.3 °F 53.6 °F 29% 30.02 in 10.0 mi ESE 21.9 mph 31.1 mph N/A Thunderstorm Clear
4:28 PM 89.6 °F - 51.8 °F 27% 30.02 in 10.0 mi ESE 16.1 mph 29.9 mph N/A Thunderstorm Thunderstorm
4:58 PM 86.0 °F 84.2 °F 53.6 °F 33% 29.82 in 10.0 mi East 13.8 mph - N/A Thunderstorm Thunderstorm
4:59 PM 84.2 °F 83.5 °F 57.2 °F 40% 30.02 in 10.0 mi East 11.5 mph - N/A   Clear
5:59 PM 87.8 °F - 51.8 °F 29% 29.81 in 10.0 mi East 11.5 mph - 0.00 in   Clear
6:58 PM 87.8 °F - 50.0 °F 27% 29.81 in 10.0 mi ENE 8.1 mph - N/A   Clear
7:59 PM 83.7 °F 82.7 °F 55.6 °F 38% 29.82 in 5.0 mi ENE 4.6 mph - N/A   Haze
8:17 PM 82.4 °F 82.0 °F 57.2 °F 42% 30.03 in 9.0 mi ENE 8.1 mph - N/A   Clear
8:38 PM 80.6 °F 81.1 °F 59.0 °F 48% 30.04 in 9.0 mi East 8.1 mph - N/A   Clear
8:58 PM 80.6 °F 80.8 °F 57.2 °F 45% 29.83 in 10.0 mi East 6.9 mph - N/A   Clear
9:22 PM 80.6 °F - 51.8 °F 37% 30.06 in 8.0 mi ENE 5.8 mph - N/A   Clear
9:43 PM 78.8 °F - 51.8 °F 39% 30.06 in 10.0 mi East 8.1 mph - N/A   Clear
9:59 PM 79.5 °F - 52.2 °F 38% 29.86 in 10.0 mi East 5.8 mph - N/A   Clear
10:05 PM 78.8 °F - 51.8 °F 39% 30.07 in 9.0 mi East 8.1 mph - N/A   Clear
10:20 PM 80.6 °F - 51.8 °F 37% 30.07 in 10.0 mi East 8.1 mph - N/A   Clear
10:58 PM 78.8 °F - 51.8 °F 39% 29.85 in 10.0 mi Variable 3.5 mph - N/A   Clear
11:58 PM 75.2 °F - 53.6 °F 47% 29.86 in 10.0 mi SW 4.6 mph - N/A   Clear